Date String (YYYY-MM-DD hh:mm:ss) UTC,Instrument flags,Ambient pressure (hPa),Sample flow (lpm),Bypass flow (lpm),Sample temperature (°C),Ambient temperature (°C),ASC tube jacket temperature (°C),LED temperature (°C),Box temperature (°C),Sample RH (%),Span deviation,Mass concentration (μg/m³),Mass concentration (μg/m³),Mass concentration (μg/m³)
DateTimeUTC,F1_M11,P_M11,Q1_M11,Q2_M11,T1_M11,T2_M11,T3_M11,T4_M11,T5_M11,U1_M11,ZSPAN_M11,X0_M11,X2_M11,X1_M11
2022-02-20 05:00:00,,0818.9,5.01,0.00,22.4,22.0,00.0,31.3,24.2,06.8,0000.0,0001.83,0000.70,0000.51
2022-02-20 05:01:00,,0818.9,5.00,0.00,22.4,21.8,00.0,31.3,24.1,06.8,0000.0,0001.87,0000.70,0000.50
2022-02-20 05:02:00,,0818.8,5.00,0.00,22.4,21.7,00.0,31.3,24.1,06.7,0000.0,0001.73,0000.69,0000.50
2022-02-20 05:03:00,,0818.8,4.99,0.00,22.3,21.6,00.0,31.3,24.1,06.6,0000.0,0001.56,0000.69,0000.50
2022-02-20 05:04:00,,0818.8,5.02,0.00,22.3,21.6,00.0,31.3,24.1,06.7,0000.0,0001.55,0000.68,0000.51
2022-02-20 05:05:00,,0818.8,5.00,0.00,22.3,21.5,00.0,31.3,24.1,06.6,0000.0,0001.56,0000.68,0000.50
2022-02-20 05:06:00,,0818.7,5.01,0.00,22.3,21.5,00.0,31.3,24.0,06.5,0000.0,0001.52,0000.67,0000.50
2022-02-20 05:07:00,,0818.7,5.00,0.00,22.3,21.4,00.0,31.3,24.0,07.0,0000.0,0001.60,0000.65,0000.50
2022-02-20 05:08:00,,0818.5,4.99,0.00,22.3,21.3,00.0,31.3,24.0,06.8,0000.0,0001.59,0000.64,0000.49
2022-02-20 05:09:00,,0818.7,5.01,0.00,22.2,21.3,00.0,31.3,24.0,06.8,0000.0,0001.34,0000.64,0000.49
2022-02-20 05:10:00,,0818.7,4.99,0.00,22.2,21.3,00.0,31.3,24.0,06.9,0000.0,0001.38,0000.66,0000.49
2022-02-20 05:11:00,,0818.6,5.02,0.00,22.2,21.2,00.0,31.3,24.0,06.7,0000.0,0001.36,0000.65,0000.48
2022-02-20 05:12:00,,0818.7,4.99,0.00,22.2,21.2,00.0,31.3,24.0,06.3,0000.0,0001.34,0000.66,0000.48
2022-02-20 05:13:00,,0818.7,4.99,0.00,22.2,21.1,00.0,31.3,23.9,06.4,0000.0,0001.31,0000.68,0000.48
2022-02-20 05:14:00,,0818.7,5.02,0.00,22.2,21.1,00.0,31.3,23.9,06.3,0000.0,0001.39,0000.68,0000.47
2022-02-20 05:15:00,,0818.8,5.00,0.00,22.2,21.1,00.0,31.2,23.9,06.4,0000.0,0001.63,0000.73,0000.47
2022-02-20 05:16:00,,0818.8,4.99,0.00,22.2,21.1,00.0,31.2,23.9,06.3,0000.0,0001.77,0000.77,0000.46
2022-02-20 05:17:00,,0818.8,5.01,0.00,22.1,21.1,00.0,31.2,23.9,06.5,0000.0,0001.80,0000.79,0000.46
2022-02-20 05:18:00,,0818.8,4.99,0.00,22.1,21.1,00.0,31.2,23.9,06.5,0000.0,0001.77,0000.81,0000.45
2022-02-20 05:19:00,,0818.8,5.02,0.00,22.1,21.1,00.0,31.2,23.8,06.5,0000.0,0001.76,0000.80,0000.45
2022-02-20 05:20:00,,0818.8,4.99,0.00,22.1,21.1,00.0,31.2,23.8,06.4,0000.0,0001.70,0000.79,0000.45
2022-02-20 05:21:00,,0818.5,5.00,0.00,22.1,21.0,00.0,31.2,23.8,06.3,0000.0,0001.63,0000.77,0000.44
2022-02-20 05:22:00,,0818.6,5.01,0.00,22.1,21.4,00.0,31.2,23.9,06.2,0000.0,0001.70,0000.79,0000.44
2022-02-20 05:23:00,,0818.6,4.99,0.00,22.2,22.2,00.0,31.2,24.1,06.3,0000.0,0002.61,0000.78,0000.44
2022-02-20 05:24:00,,0818.5,5.00,0.00,22.4,22.9,00.0,31.3,24.4,06.4,0000.0,0002.99,0000.77,0000.45
2022-02-20 05:25:00,,0818.6,5.00,0.00,22.5,22.9,00.0,31.3,24.5,06.4,0000.0,0002.78,0000.74,0000.45
2022-02-20 05:26:00,,0818.6,5.00,0.00,22.5,22.6,00.0,31.3,24.4,06.3,0000.0,0002.68,0000.69,0000.44
2022-02-20 05:27:00,,0818.6,4.99,0.00,22.5,22.4,00.0,31.3,24.3,06.2,0000.0,0003.01,0000.67,0000.44
2022-02-20 05:28:00,,0818.6,5.00,0.00,22.5,22.2,00.0,31.3,24.3,06.3,0000.0,0003.19,0000.69,0000.44
2022-02-20 05:29:00,,0818.8,5.00,0.00,22.4,22.0,00.0,31.3,24.3,06.2,0000.0,0003.15,0000.66,0000.44
2022-02-20 05:30:00,,0818.8,4.99,0.00,22.4,21.9,00.0,31.3,24.2,06.5,0000.0,0003.11,0000.66,0000.43
2022-02-20 05:31:00,,0818.8,5.01,0.00,22.4,21.8,00.0,31.4,24.2,06.4,0000.0,0003.12,0000.67,0000.43
2022-02-20 05:32:00,,0818.8,4.99,0.00,22.4,21.7,00.0,31.4,24.1,06.5,0000.0,0003.08,0000.66,0000.43
2022-02-20 05:33:00,,0818.6,5.01,0.00,22.4,21.7,00.0,31.4,24.0,06.4,0000.0,0003.05,0000.66,0000.44
2022-02-20 05:34:00,,0818.8,4.99,0.00,22.3,21.6,00.0,31.4,24.0,06.4,0000.0,0002.26,0000.68,0000.44
2022-02-20 05:35:00,,0818.8,5.02,0.00,22.3,21.5,00.0,31.3,24.0,06.6,0000.0,0001.77,0000.68,0000.44
2022-02-20 05:36:00,,0818.8,4.99,0.00,22.3,21.5,00.0,31.3,24.0,06.3,0000.0,0001.91,0000.71,0000.44
2022-02-20 05:37:00,,0819.0,5.00,0.00,22.3,21.5,00.0,31.3,24.0,06.2,0000.0,0001.89,0000.74,0000.45
2022-02-20 05:38:00,,0818.9,4.99,0.00,22.3,21.4,00.0,31.3,23.9,06.3,0000.0,0001.47,0000.72,0000.45
2022-02-20 05:39:00,,0818.9,5.01,0.00,22.3,21.4,00.0,31.3,23.9,06.3,0000.0,0001.21,0000.67,0000.45
2022-02-20 05:40:00,,0818.9,5.00,0.00,22.2,21.4,00.0,31.3,23.9,06.4,0000.0,0001.15,0000.67,0000.44
2022-02-20 05:41:00,,0818.9,5.00,0.00,22.2,21.4,00.0,31.3,23.9,06.4,0000.0,0001.83,0000.69,0000.44
2022-02-20 05:42:00,,0818.9,5.00,0.00,22.2,21.4,00.0,31.3,23.9,06.4,0000.0,0002.54,0000.75,0000.44
2022-02-20 05:43:00,,0818.8,4.99,0.00,22.2,21.3,00.0,31.3,23.9,06.4,0000.0,0002.85,0000.80,0000.44
2022-02-20 05:44:00,,0818.8,4.99,0.00,22.2,21.3,00.0,31.3,23.9,06.3,0000.0,0004.05,0000.78,0000.44
2022-02-20 05:45:00,,0818.6,5.02,0.00,22.1,21.2,00.0,31.3,23.8,06.6,0000.0,0004.05,0000.77,0000.44
2022-02-20 05:46:00,,0818.6,4.99,0.00,22.1,21.2,00.0,31.2,23.9,06.5,0000.0,0004.29,0000.75,0000.44
2022-02-20 05:47:00,,0818.4,5.00,0.00,22.1,21.1,00.0,31.2,23.9,06.5,0000.0,0005.29,0000.75,0000.44
2022-02-20 05:48:00,,0818.5,4.99,0.00,22.1,21.1,00.0,31.2,23.8,06.5,0000.0,0005.46,0000.77,0000.44
2022-02-20 05:49:00,,0818.6,5.02,0.00,22.1,21.1,00.0,31.2,23.8,06.4,0000.0,0006.28,0000.76,0000.44
2022-02-20 05:50:00,,0818.6,4.99,0.00,22.1,21.7,00.0,31.2,24.0,06.5,0000.0,0006.70,0000.78,0000.44
2022-02-20 05:51:00,,0818.6,5.01,0.00,22.3,22.6,00.0,31.3,24.2,06.6,0000.0,0006.69,0000.78,0000.44
2022-02-20 05:52:00,,0818.7,4.98,0.00,22.4,23.0,00.0,31.3,24.4,06.5,0000.0,0005.94,0000.76,0000.44
2022-02-20 05:53:00,,0818.6,5.01,0.00,22.5,22.8,00.0,31.3,24.4,06.4,0000.0,0005.23,0000.68,0000.44
2022-02-20 05:54:00,,0818.5,5.00,0.00,22.4,22.5,00.0,31.3,24.3,06.5,0000.0,0004.79,0000.63,0000.45
2022-02-20 05:55:00,,0818.5,5.01,0.00,22.4,22.3,00.0,31.3,24.3,06.5,0000.0,0003.67,0000.62,0000.44
2022-02-20 05:56:00,,0818.5,5.01,0.00,22.4,22.1,00.0,31.3,24.2,06.3,0000.0,0003.71,0000.65,0000.44
2022-02-20 05:57:00,,0818.5,5.00,0.00,22.4,22.0,00.0,31.3,24.2,06.6,0000.0,0003.35,0000.66,0000.45
2022-02-20 05:58:00,,0818.3,4.99,0.00,22.4,21.9,00.0,31.3,24.1,06.5,0000.0,0002.22,0000.63,0000.44
2022-02-20 05:59:00,,0818.5,5.00,0.00,22.3,21.7,00.0,31.3,24.1,06.5,0000.0,0002.06,0000.59,0000.45
